Hourly Weather Roundup
Issued by NWS Central Illinois

Home | Current Version | Previous Version | Text Only | Print | Product List | Glossary On
Versions: 1 2 3 4 5 6 7 8 9 10 11 12 13 14 15 16 17 18 19 20 21 22 23 24 25 26 27 28 29 30 31 32 33 34 35 36 37 38 39 40 41 42 43 44 45 46 47 48 49 50
000
NZUS43 KILX 291610
HWRILX

AREA WEATHER ROUNDUP
NATIONAL WEATHER SERVICE, LINCOLN IL
1100 AM CDT SUN MAY 29 2016


CITY           SKY/WX    TMP DP  RH WIND       PRES   REMARKS
BLOOMINGTON    SUNNY     76  63  64 W15       30.08S
CHAMPAIGN      SUNNY     81  58  45 W13       30.08S HX  81
DANVILLE       RAIN      80  59  49 SW14      30.05S HX  80
DECATUR        SUNNY     81  61  50 W12       30.08S HX  82
EFFINGHAM      MOSUNNY   80  66  61 W8        30.11S HX  82
FLORA          PTSUNNY   81  70  68 NW5       30.10R HX  84
GALESBURG      PTSUNNY   73  62  66 W10       30.08R
JACKSONVILLE   SUNNY     80  61  52 W10       30.09R HX  81
LACON          SUNNY     75  58  56 W14       30.05S
LAWRENCEVILLE  MOSUNNY   80  68  66 SW6       30.09S HX  83
LITCHFIELD     SUNNY     79  59  50 NW8       30.10S HX  80
$$


CITY           SKY/WX    TMP DP  RH WIND       PRES   REMARKS
LINCOLN        SUNNY     78  63  58 W6        30.07S HX  80
MACOMB         SUNNY     74  60  61 W9        30.10S
MATTOON        MOSUNNY   78  62  57 SW8       30.08F HX  80
MT CARMEL AP   MOSUNNY   80  67  64 SW6       30.09S HX  82
OLNEY-NOBLE AP PTSUNNY   79  72  78 W7        30.09S HX  82
PARIS          PTSUNNY   81  65  58 SW5       30.09S HX  82
PEORIA         SUNNY     77  59  53 NW10      30.06S
PONTIAC        MOSUNNY   77  62  59 SW15G22   30.06R
RANTOUL        MOSUNNY   81  62  53 SW14      30.07S HX  82
ROBINSON       PTSUNNY   80  66  62 SW6       30.09S HX  82
SPRINGFIELD    SUNNY     82  60  47 W13       30.08S HX  82
TAYLORVILLE    MOSUNNY   79  59  50 W12       30.09S HX  80
$$

...REGIONAL REPORTS...


CITY           SKY/WX    TMP DP  RH WIND       PRES   REMARKS
CHICAGO O`HARE PTSUNNY   75  59  57 SW20G26   30.00R
KANKAKEE       MOSUNNY   80  61  53 SW16      30.05S HX  81
MOLINE         MOSUNNY   74  61  63 W12G20    30.05R
MOUNT STERLING SUNNY     75  60  58 W10       30.09R
MOUNT VERNON   PTSUNNY   81  66  61 CALM      30.11R HX  83
PITTSFIELD     SUNNY     77  62  59 W9        30.11R
QUINCY         SUNNY     76  59  55 NW6       30.09S
ROCKFORD       PTSUNNY   72  60  66 W14       30.04S
$$


CITY           SKY/WX    TMP DP  RH WIND       PRES   REMARKS
BURLINGTON     SUNNY     74  60  61 W7G18     30.07S
CEDAR RAPIDS   MOSUNNY   72  63  73 W14G22    30.05R
DES MOINES     MOSUNNY   74  58  57 W9        30.08S
KIRKSVILLE     SUNNY     76  59  55 W8        30.11S
OTTUMWA        SUNNY     72  60  66 W10       30.09R
ST LOUIS       MOSUNNY   83  61  47 NW9       30.11S HX  83
$$


CITY           SKY/WX    TMP DP  RH WIND       PRES   REMARKS
TERRE HAUTE    MOSUNNY   81  63  54 VRB5      30.09S HX  82
EVANSVILLE     PTSUNNY   81  68  64 SW5       30.10S HX  84
INDIANAPOLIS   MOSUNNY   79  68  69 SW7       30.07F HX  81
LAFAYETTE      SUNNY     79  60  52 VRB7G18   30.06S HX  80
MADISON        PTSUNNY   71  59  65 W10G18    29.96R
MILWAUKEE      PTSUNNY   72  59  63 SW17G26   29.97R
$$






USA.gov is the U.S. government's official web portal to all federal, state and local government web resources and services.